Time,TemperatureF,DewpointF,PressureIn,WindDirection,WindDirectionDegrees,WindSpeedMPH,WindSpeedGustMPH,Humidity,HourlyPrecipIn,Conditions,Clouds,dailyrainin,SoftwareType,DateUTC
2013-02-05 00:00:00,20.5,13.9,29.95,SE,129,0.0,0.0,75,0.00,,,0.00,VWS V14.01,2013-02-05 05:00:00,
2013-02-05 00:01:00,20.5,13.9,29.95,SE,129,0.0,0.0,75,0.00,,,0.00,VWS V14.01,2013-02-05 05:01:00,
2013-02-05 00:06:00,20.5,13.9,29.95,SE,129,0.0,0.0,75,0.00,,,0.00,VWS V14.01,2013-02-05 05:06:00,
2013-02-05 00:11:00,20.5,13.5,29.95,SE,129,0.0,0.0,74,0.00,,,0.00,VWS V14.01,2013-02-05 05:11:00,
2013-02-05 00:16:00,20.5,13.5,29.95,SE,129,0.0,0.0,74,0.00,,,0.00,VWS V14.01,2013-02-05 05:16:00,
2013-02-05 00:21:00,20.5,14.1,29.95,SE,129,0.0,0.0,76,0.00,,,0.00,VWS V14.01,2013-02-05 05:21:00,
2013-02-05 00:26:00,20.5,14.1,29.95,SE,129,0.0,0.0,76,0.00,,,0.00,VWS V14.01,2013-02-05 05:26:00,
2013-02-05 00:30:00,20.5,14.1,29.95,SE,129,0.0,0.0,76,0.00,,,0.00,VWS V14.01,2013-02-05 05:30:00,
2013-02-05 00:31:00,20.5,14.1,29.95,SE,129,0.0,0.0,76,0.00,,,0.00,VWS V14.01,2013-02-05 05:31:00,
2013-02-05 00:36:00,20.5,14.1,29.95,SE,129,0.0,0.0,76,0.00,,,0.00,VWS V14.01,2013-02-05 05:36:00,
2013-02-05 00:41:00,20.5,14.4,29.95,SE,129,0.0,0.0,77,0.00,,,0.00,VWS V14.01,2013-02-05 05:41:00,
2013-02-05 00:46:00,20.5,14.4,29.94,SE,129,0.0,0.0,77,0.00,,,0.00,VWS V14.01,2013-02-05 05:46:00,
2013-02-05 00:51:00,20.6,14.2,29.94,SE,129,0.0,0.0,76,0.00,,,0.00,VWS V14.01,2013-02-05 05:51:00,
2013-02-05 00:56:00,20.7,14.0,29.94,SE,129,0.0,0.0,75,0.00,,,0.00,VWS V14.01,2013-02-05 05:56:00,
2013-02-05 01:00:00,20.9,14.5,29.93,SE,129,0.0,0.0,76,0.00,,,0.00,VWS V14.01,2013-02-05 06:00:00,
2013-02-05 01:01:00,20.9,14.5,29.94,SE,129,0.0,0.0,76,0.00,,,0.00,VWS V14.01,2013-02-05 06:01:00,
2013-02-05 01:07:00,21.1,14.1,29.94,SE,129,0.0,0.0,74,0.00,,,0.00,VWS V14.01,2013-02-05 06:07:00,
2013-02-05 01:12:00,21.3,14.6,29.94,SE,129,0.0,0.0,75,0.00,,,0.00,VWS V14.01,2013-02-05 06:12:00,
2013-02-05 01:17:00,21.4,15.0,29.93,SE,129,0.0,0.0,76,0.00,,,0.00,VWS V14.01,2013-02-05 06:17:00,
2013-02-05 01:22:00,21.5,15.1,29.94,SE,129,0.0,0.0,76,0.00,,,0.00,VWS V14.01,2013-02-05 06:22:00,
2013-02-05 01:27:00,21.5,15.1,29.94,SE,129,0.0,0.0,76,0.00,,,0.00,VWS V14.01,2013-02-05 06:27:00,
2013-02-05 01:30:00,21.5,15.1,29.94,SE,129,0.0,0.0,76,0.00,,,0.00,VWS V14.01,2013-02-05 06:30:00,
2013-02-05 01:32:00,21.5,15.1,29.94,SE,129,0.0,0.0,76,0.00,,,0.00,VWS V14.01,2013-02-05 06:32:00,
2013-02-05 01:37:00,21.6,15.5,29.94,SE,129,0.0,0.0,77,0.00,,,0.00,VWS V14.01,2013-02-05 06:37:00,
2013-02-05 01:42:00,21.6,15.5,29.94,SE,129,0.0,0.0,77,0.00,,,0.00,VWS V14.01,2013-02-05 06:42:00,
2013-02-05 01:47:00,21.6,15.5,29.94,SE,129,0.0,0.0,77,0.00,,,0.00,VWS V14.01,2013-02-05 06:47:00,
2013-02-05 01:52:00,21.6,15.8,29.94,SE,129,0.0,0.0,78,0.00,,,0.00,VWS V14.01,2013-02-05 06:52:00,
2013-02-05 01:57:00,21.6,15.8,29.94,SE,129,0.0,0.0,78,0.00,,,0.00,VWS V14.01,2013-02-05 06:57:00,
2013-02-05 02:00:00,21.7,15.9,29.94,SE,129,0.0,0.0,78,0.00,,,0.00,VWS V14.01,2013-02-05 07:00:00,
2013-02-05 02:02:00,21.7,15.9,29.94,SE,129,0.0,0.0,78,0.00,,,0.00,VWS V14.01,2013-02-05 07:02:00,
2013-02-05 02:07:00,21.7,15.6,29.94,SE,129,0.0,0.0,77,0.00,,,0.00,VWS V14.01,2013-02-05 07:07:00,
2013-02-05 02:12:00,21.7,15.6,29.94,SE,129,0.0,0.0,77,0.00,,,0.00,VWS V14.01,2013-02-05 07:12:00,
2013-02-05 02:17:00,21.7,15.6,29.94,SE,129,0.0,0.0,77,0.00,,,0.00,VWS V14.01,2013-02-05 07:17:00,
2013-02-05 02:22:00,21.7,15.6,29.94,SE,129,0.0,0.0,77,0.00,,,0.00,VWS V14.01,2013-02-05 07:22:00,
2013-02-05 02:28:00,21.7,15.6,29.94,SE,129,0.0,0.0,77,0.00,,,0.00,VWS V14.01,2013-02-05 07:28:00,
2013-02-05 02:30:00,21.8,15.7,29.94,SE,129,0.0,0.0,77,0.00,,,0.00,VWS V14.01,2013-02-05 07:30:00,
2013-02-05 02:33:00,21.7,15.6,29.94,SE,129,0.0,0.0,77,0.00,,,0.00,VWS V14.01,2013-02-05 07:33:00,
2013-02-05 02:38:00,21.8,15.4,29.94,SE,129,0.0,0.0,76,0.00,,,0.00,VWS V14.01,2013-02-05 07:38:00,
2013-02-05 02:43:00,21.8,15.7,29.95,SE,129,0.0,0.0,77,0.00,,,0.00,VWS V14.01,2013-02-05 07:43:00,
2013-02-05 02:48:00,21.8,15.7,29.94,SE,129,0.0,0.0,77,0.00,,,0.00,VWS V14.01,2013-02-05 07:48:00,
2013-02-05 02:53:00,21.8,15.7,29.94,SE,129,0.0,0.0,77,0.00,,,0.00,VWS V14.01,2013-02-05 07:53:00,
2013-02-05 02:58:00,21.8,15.7,29.94,SE,129,0.0,0.0,77,0.00,,,0.00,VWS V14.01,2013-02-05 07:58:00,
2013-02-05 03:00:00,21.9,15.8,29.94,SE,129,0.0,0.0,77,0.00,,,0.00,VWS V14.01,2013-02-05 08:00:00,
2013-02-05 03:03:00,21.9,15.8,29.94,SE,129,0.0,0.0,77,0.00,,,0.00,VWS V14.01,2013-02-05 08:03:00,
2013-02-05 03:08:00,21.9,15.8,29.94,SE,129,0.0,0.0,77,0.00,,,0.00,VWS V14.01,2013-02-05 08:08:00,
2013-02-05 03:13:00,21.9,15.8,29.94,SE,129,0.0,0.0,77,0.00,,,0.00,VWS V14.01,2013-02-05 08:13:00,
2013-02-05 03:18:00,21.9,15.5,29.94,SE,129,0.0,0.0,76,0.00,,,0.00,VWS V14.01,2013-02-05 08:18:00,
2013-02-05 03:24:00,21.9,15.5,29.94,SE,129,0.0,0.0,76,0.00,,,0.00,VWS V14.01,2013-02-05 08:24:00,
2013-02-05 03:29:00,21.9,15.5,29.94,SE,129,0.0,0.0,76,0.00,,,0.00,VWS V14.01,2013-02-05 08:29:00,
2013-02-05 03:30:00,22.0,15.9,29.94,SE,129,0.0,0.0,77,0.00,,,0.00,VWS V14.01,2013-02-05 08:30:00,
2013-02-05 03:34:00,22.0,15.9,29.93,SE,129,0.0,0.0,77,0.00,,,0.00,VWS V14.01,2013-02-05 08:34:00,
2013-02-05 03:39:00,22.0,15.9,29.93,SE,129,0.0,0.0,77,0.00,,,0.00,VWS V14.01,2013-02-05 08:39:00,
2013-02-05 03:44:00,21.9,16.1,29.93,SE,129,0.0,0.0,78,0.00,,,0.00,VWS V14.01,2013-02-05 08:44:00,
2013-02-05 03:49:00,21.9,16.4,29.93,SE,129,0.0,0.0,79,0.00,,,0.00,VWS V14.01,2013-02-05 08:49:00,
2013-02-05 03:54:00,21.9,16.4,29.93,SE,129,0.0,0.0,79,0.00,,,0.00,VWS V14.01,2013-02-05 08:54:00,
2013-02-05 03:59:00,21.8,16.6,29.93,SE,129,0.0,0.0,80,0.00,,,0.00,VWS V14.01,2013-02-05 08:59:00,
2013-02-05 04:00:00,21.8,16.6,29.93,SE,129,0.0,0.0,80,0.00,,,0.00,VWS V14.01,2013-02-05 09:00:00,
2013-02-05 04:04:00,21.8,16.6,29.93,SE,129,0.0,0.0,80,0.00,,,0.00,VWS V14.01,2013-02-05 09:04:00,
2013-02-05 04:09:00,21.8,16.9,29.93,SE,129,0.0,0.0,81,0.00,,,0.00,VWS V14.01,2013-02-05 09:09:00,
2013-02-05 04:14:00,21.8,16.9,29.93,SE,129,0.0,0.0,81,0.00,,,0.00,VWS V14.01,2013-02-05 09:14:00,
2013-02-05 04:19:00,21.8,16.9,29.93,SE,129,0.0,0.0,81,0.00,,,0.00,VWS V14.01,2013-02-05 09:19:00,
2013-02-05 04:25:00,21.8,16.9,29.93,SE,129,0.0,0.0,81,0.00,,,0.00,VWS V14.01,2013-02-05 09:25:00,
2013-02-05 04:30:00,21.7,16.8,29.94,SE,129,0.0,0.0,81,0.00,,,0.00,VWS V14.01,2013-02-05 09:30:00,
2013-02-05 04:35:00,21.7,17.1,29.94,SE,129,0.0,0.0,82,0.00,,,0.00,VWS V14.01,2013-02-05 09:35:00,
2013-02-05 04:40:00,21.7,17.1,29.94,SE,129,0.0,0.0,82,0.00,,,0.00,VWS V14.01,2013-02-05 09:40:00,
2013-02-05 04:45:00,21.7,17.3,29.94,SE,129,0.0,0.0,83,0.00,,,0.00,VWS V14.01,2013-02-05 09:45:00,
2013-02-05 04:50:00,21.7,17.3,29.94,SE,129,0.0,0.0,83,0.00,,,0.00,VWS V14.01,2013-02-05 09:50:00,
2013-02-05 04:55:00,21.7,17.3,29.94,SE,129,0.0,0.0,83,0.00,,,0.00,VWS V14.01,2013-02-05 09:55:00,
2013-02-05 05:00:00,21.7,17.3,29.93,SE,129,0.0,0.0,83,0.00,,,0.00,VWS V14.01,2013-02-05 10:00:00,
2013-02-05 05:05:00,21.6,17.5,29.94,SE,129,0.0,0.0,84,0.00,,,0.00,VWS V14.01,2013-02-05 10:05:00,
2013-02-05 05:10:00,21.6,17.5,29.94,SE,129,0.0,0.0,84,0.00,,,0.00,VWS V14.01,2013-02-05 10:10:00,
2013-02-05 05:15:00,21.6,17.5,29.93,SE,129,0.0,0.0,84,0.00,,,0.00,VWS V14.01,2013-02-05 10:15:00,
2013-02-05 05:20:00,21.6,17.8,29.93,SE,129,0.0,0.0,85,0.00,,,0.00,VWS V14.01,2013-02-05 10:20:00,
2013-02-05 05:25:00,21.6,17.8,29.93,SE,129,0.0,0.0,85,0.00,,,0.00,VWS V14.01,2013-02-05 10:25:00,
2013-02-05 05:30:00,21.6,17.8,29.93,SE,129,0.0,0.0,85,0.00,,,0.00,VWS V14.01,2013-02-05 10:30:00,
2013-02-05 05:35:00,21.6,18.1,29.94,SE,129,0.0,0.0,86,0.00,,,0.00,VWS V14.01,2013-02-05 10:35:00,
2013-02-05 05:40:00,21.7,18.2,29.94,SE,129,0.0,1.0,86,0.00,,,0.00,VWS V14.01,2013-02-05 10:40:00,
2013-02-05 05:46:00,21.7,18.2,29.95,SE,129,0.0,1.0,86,0.00,,,0.00,VWS V14.01,2013-02-05 10:46:00,
2013-02-05 05:51:00,21.7,18.2,29.95,SE,129,0.0,1.0,86,0.00,,,0.00,VWS V14.01,2013-02-05 10:51:00,
2013-02-05 05:56:00,21.7,18.2,29.95,SE,129,0.0,1.0,86,0.00,,,0.00,VWS V14.01,2013-02-05 10:56:00,
2013-02-05 06:00:00,21.7,18.2,29.95,SE,129,0.0,1.0,86,0.00,,,0.00,VWS V14.01,2013-02-05 11:00:00,
2013-02-05 06:01:00,21.7,18.2,29.95,SE,129,0.0,0.0,86,0.00,,,0.00,VWS V14.01,2013-02-05 11:01:00,
2013-02-05 06:06:00,21.7,17.9,29.95,SE,129,0.0,0.0,85,0.00,,,0.00,VWS V14.01,2013-02-05 11:06:00,
2013-02-05 06:11:00,21.7,18.2,29.94,SE,129,0.0,0.0,86,0.00,,,0.00,VWS V14.01,2013-02-05 11:11:00,
2013-02-05 06:16:00,21.7,18.2,29.94,SE,129,0.0,0.0,86,0.00,,,0.00,VWS V14.01,2013-02-05 11:16:00,
2013-02-05 06:21:00,21.7,18.2,29.94,SE,129,0.0,0.0,86,0.00,,,0.00,VWS V14.01,2013-02-05 11:21:00,
2013-02-05 06:26:00,21.7,18.2,29.94,SE,129,0.0,0.0,86,0.00,,,0.00,VWS V14.01,2013-02-05 11:26:00,
2013-02-05 06:30:00,21.7,18.2,29.94,SE,129,0.0,0.0,86,0.00,,,0.00,VWS V14.01,2013-02-05 11:30:00,
2013-02-05 06:31:00,21.7,18.2,29.94,SE,129,0.0,0.0,86,0.00,,,0.00,VWS V14.01,2013-02-05 11:31:00,
2013-02-05 06:36:00,21.7,18.2,29.94,SE,129,0.0,0.0,86,0.00,,,0.00,VWS V14.01,2013-02-05 11:36:00,
2013-02-05 06:41:00,21.7,18.2,29.95,SE,129,0.0,1.0,86,0.00,,,0.00,VWS V14.01,2013-02-05 11:41:00,
2013-02-05 06:46:00,21.6,18.3,29.95,SE,129,0.0,1.0,87,0.00,,,0.00,VWS V14.01,2013-02-05 11:46:00,
2013-02-05 06:51:00,21.6,18.3,29.96,SE,129,0.0,1.0,87,0.00,,,0.00,VWS V14.01,2013-02-05 11:51:00,
2013-02-05 06:56:00,21.6,18.3,29.96,SE,129,0.0,1.0,87,0.00,,,0.00,VWS V14.01,2013-02-05 11:56:00,
2013-02-05 07:00:00,21.6,18.3,29.96,SE,129,0.0,1.0,87,0.00,,,0.00,VWS V14.01,2013-02-05 12:00:00,
2013-02-05 07:01:00,21.6,18.3,29.96,SE,129,0.0,0.0,87,0.00,,,0.00,VWS V14.01,2013-02-05 12:01:00,
2013-02-05 07:06:00,21.6,18.6,29.96,SE,129,0.0,0.0,88,0.00,,,0.00,VWS V14.01,2013-02-05 12:06:00,
2013-02-05 07:11:00,21.6,18.6,29.96,SE,129,0.0,0.0,88,0.00,,,0.00,VWS V14.01,2013-02-05 12:11:00,
2013-02-05 07:17:00,21.6,18.6,29.96,SE,129,0.0,0.0,88,0.00,,,0.00,VWS V14.01,2013-02-05 12:17:00,
2013-02-05 07:22:00,21.6,18.6,29.96,SE,129,0.0,0.0,88,0.00,,,0.00,VWS V14.01,2013-02-05 12:22:00,
2013-02-05 07:27:00,21.6,18.6,29.96,SE,129,0.0,1.0,88,0.00,,,0.00,VWS V14.01,2013-02-05 12:27:00,
2013-02-05 07:30:00,21.7,18.7,29.96,SE,129,0.0,1.0,88,0.00,,,0.00,VWS V14.01,2013-02-05 12:30:00,
2013-02-05 07:32:00,21.7,18.7,29.96,SE,129,0.0,0.0,88,0.00,,,0.00,VWS V14.01,2013-02-05 12:32:00,
2013-02-05 07:37:00,21.8,18.8,29.97,SE,129,0.0,0.0,88,0.00,,,0.00,VWS V14.01,2013-02-05 12:37:00,
2013-02-05 07:42:00,21.8,18.8,29.97,SE,129,0.0,0.0,88,0.00,,,0.00,VWS V14.01,2013-02-05 12:42:00,
2013-02-05 07:47:00,21.9,18.9,29.97,SE,129,0.0,0.0,88,0.00,,,0.00,VWS V14.01,2013-02-05 12:47:00,
2013-02-05 07:52:00,22.0,19.0,29.97,SE,129,0.0,0.0,88,0.00,,,0.00,VWS V14.01,2013-02-05 12:52:00,
2013-02-05 07:57:00,22.0,19.0,29.97,SE,129,0.0,0.0,88,0.00,,,0.00,VWS V14.01,2013-02-05 12:57:00,
2013-02-05 08:00:00,22.0,19.0,29.97,SE,129,0.0,0.0,88,0.00,,,0.00,VWS V14.01,2013-02-05 13:00:00,
2013-02-05 08:02:00,22.1,19.1,29.97,SE,129,0.0,0.0,88,0.00,,,0.00,VWS V14.01,2013-02-05 13:02:00,
2013-02-05 08:07:00,22.1,18.8,29.97,SE,129,0.0,0.0,87,0.00,,,0.00,VWS V14.01,2013-02-05 13:07:00,
2013-02-05 08:13:00,22.2,18.9,29.97,SE,129,0.0,0.0,87,0.00,,,0.00,VWS V14.01,2013-02-05 13:13:00,
2013-02-05 08:18:00,22.3,19.0,29.97,SE,129,0.0,0.0,87,0.00,,,0.00,VWS V14.01,2013-02-05 13:18:00,
2013-02-05 08:23:00,22.3,18.8,29.97,SE,129,0.0,0.0,86,0.00,,,0.00,VWS V14.01,2013-02-05 13:23:00,
2013-02-05 08:28:00,22.4,18.9,29.97,SE,129,0.0,0.0,86,0.00,,,0.00,VWS V14.01,2013-02-05 13:28:00,
2013-02-05 08:30:00,22.4,18.9,29.97,SE,129,0.0,0.0,86,0.00,,,0.00,VWS V14.01,2013-02-05 13:30:00,
2013-02-05 08:33:00,22.5,19.0,29.98,SE,129,0.0,0.0,86,0.00,,,0.00,VWS V14.01,2013-02-05 13:33:00,
2013-02-05 08:38:00,22.6,19.0,29.98,SE,129,0.0,0.0,86,0.00,,,0.00,VWS V14.01,2013-02-05 13:38:00,
2013-02-05 08:43:00,22.7,19.1,29.98,SE,129,0.0,1.0,86,0.00,,,0.00,VWS V14.01,2013-02-05 13:43:00,
2013-02-05 08:48:00,22.8,19.0,29.98,SE,129,0.0,1.0,85,0.00,,,0.00,VWS V14.01,2013-02-05 13:48:00,
2013-02-05 08:53:00,22.9,19.1,29.98,SE,129,0.0,1.0,85,0.00,,,0.00,VWS V14.01,2013-02-05 13:53:00,
2013-02-05 08:58:00,23.0,18.9,29.98,SE,129,1.0,1.0,84,0.00,,,0.00,VWS V14.01,2013-02-05 13:58:00,
2013-02-05 09:00:00,23.0,18.9,29.98,SE,129,0.0,1.0,84,0.00,,,0.00,VWS V14.01,2013-02-05 14:00:00,
2013-02-05 09:03:00,23.1,19.0,29.98,SE,129,0.0,1.0,84,0.00,,,0.00,VWS V14.01,2013-02-05 14:03:00,
2013-02-05 09:08:00,23.2,18.8,29.98,SE,129,0.0,1.0,83,0.00,,,0.00,VWS V14.01,2013-02-05 14:08:00,
2013-02-05 09:13:00,23.4,19.0,29.98,SE,129,0.0,1.0,83,0.00,,,0.00,VWS V14.01,2013-02-05 14:13:00,
2013-02-05 09:18:00,23.6,19.5,29.98,SE,129,0.0,1.0,84,0.00,,,0.00,VWS V14.01,2013-02-05 14:18:00,
2013-02-05 09:23:00,23.8,19.4,29.98,SE,129,0.0,1.0,83,0.00,,,0.00,VWS V14.01,2013-02-05 14:23:00,
2013-02-05 09:28:00,24.0,19.6,29.98,SE,129,0.0,1.0,83,0.00,,,0.00,VWS V14.01,2013-02-05 14:28:00,
2013-02-05 09:30:00,24.2,19.8,29.98,SE,129,0.0,1.0,83,0.00,,,0.00,VWS V14.01,2013-02-05 14:30:00,
2013-02-05 09:33:00,24.2,19.5,29.98,SE,129,0.0,0.0,82,0.00,,,0.00,VWS V14.01,2013-02-05 14:33:00,
2013-02-05 09:38:00,24.5,19.8,29.99,SE,129,1.0,1.0,82,0.00,,,0.00,VWS V14.01,2013-02-05 14:38:00,
2013-02-05 09:43:00,24.5,19.8,29.99,SE,127,0.0,2.0,82,0.00,,,0.00,VWS V14.01,2013-02-05 14:43:00,
2013-02-05 09:59:00,24.5,19.5,29.98,SE,127,0.0,2.0,81,0.00,,,0.00,VWS V14.01,2013-02-05 14:59:00,
2013-02-05 10:00:00,24.9,20.2,29.99,SE,127,0.0,2.0,82,0.00,,,0.00,VWS V14.01,2013-02-05 15:00:00,
2013-02-05 10:04:00,25.0,20.3,29.99,SE,127,0.0,0.0,82,0.00,,,0.00,VWS V14.01,2013-02-05 15:04:00,
2013-02-05 10:09:00,25.1,20.1,29.99,NNW,333,0.0,2.0,81,0.00,,,0.00,VWS V14.01,2013-02-05 15:09:00,
2013-02-05 10:14:00,25.2,20.5,29.99,NNW,333,0.0,2.0,82,0.00,,,0.00,VWS V14.01,2013-02-05 15:14:00,
2013-02-05 10:19:00,25.3,20.3,29.99,NNW,333,0.0,2.0,81,0.00,,,0.00,VWS V14.01,2013-02-05 15:19:00,
2013-02-05 10:24:00,25.6,20.9,29.99,NNW,333,0.0,2.0,82,0.00,,,0.00,VWS V14.01,2013-02-05 15:24:00,
2013-02-05 10:29:00,25.8,21.1,29.99,NNW,333,0.0,2.0,82,0.00,,,0.00,VWS V14.01,2013-02-05 15:29:00,
2013-02-05 10:30:00,25.9,21.2,29.99,NNW,333,0.0,2.0,82,0.00,,,0.00,VWS V14.01,2013-02-05 15:30:00,
2013-02-05 10:34:00,26.1,20.8,29.99,NNW,333,0.0,1.0,80,0.00,,,0.00,VWS V14.01,2013-02-05 15:34:00,
2013-02-05 10:39:00,26.2,21.2,29.99,NNW,335,0.0,1.0,81,0.00,,,0.00,VWS V14.01,2013-02-05 15:39:00,
2013-02-05 10:44:00,26.4,21.4,29.98,NNW,335,0.0,1.0,81,0.00,,,0.00,VWS V14.01,2013-02-05 15:44:00,
2013-02-05 10:49:00,26.5,21.2,29.98,NNW,335,0.0,1.0,80,0.00,,,0.00,VWS V14.01,2013-02-05 15:49:00,
2013-02-05 10:54:00,26.7,21.7,29.98,NNW,335,0.0,1.0,81,0.00,,,0.00,VWS V14.01,2013-02-05 15:54:00,
2013-02-05 11:03:00,26.9,21.6,29.98,NNW,335,0.0,1.0,80,0.00,,,0.00,VWS V14.01,2013-02-05 16:03:00,
2013-02-05 11:08:00,27.2,21.6,29.98,NNW,335,0.0,1.0,79,0.00,,,0.00,VWS V14.01,2013-02-05 16:08:00,
2013-02-05 11:13:00,27.2,21.3,29.98,NW,313,2.0,3.0,78,0.00,,,0.00,VWS V14.01,2013-02-05 16:13:00,
2013-02-05 11:18:00,27.2,21.6,29.98,NNW,344,0.0,3.0,79,0.00,,,0.00,VWS V14.01,2013-02-05 16:18:00,
2013-02-05 11:24:00,27.3,21.1,29.98,NNW,344,0.0,3.0,77,0.00,,,0.00,VWS V14.01,2013-02-05 16:24:00,
2013-02-05 11:29:00,27.4,21.5,29.98,NNW,344,0.0,3.0,78,0.00,,,0.00,VWS V14.01,2013-02-05 16:29:00,
2013-02-05 11:30:00,27.6,22.0,29.98,NNW,344,0.0,3.0,79,0.00,,,0.00,VWS V14.01,2013-02-05 16:30:00,
2013-02-05 11:34:00,27.8,22.1,29.98,NNW,344,0.0,1.0,79,0.00,,,0.00,VWS V14.01,2013-02-05 16:34:00,
2013-02-05 11:39:00,28.1,22.1,29.97,NNW,344,0.0,1.0,78,0.00,,,0.00,VWS V14.01,2013-02-05 16:39:00,
2013-02-05 11:44:00,28.3,22.0,29.96,NNW,333,2.0,3.0,77,0.00,,,0.00,VWS V14.01,2013-02-05 16:44:00,
2013-02-05 11:49:00,28.1,21.8,29.96,NNW,331,0.0,3.0,77,0.00,,,0.00,VWS V14.01,2013-02-05 16:49:00,
2013-02-05 11:54:00,28.2,21.6,29.96,NNW,331,0.0,3.0,76,0.00,,,0.00,VWS V14.01,2013-02-05 16:54:00,
2013-02-05 11:59:00,28.3,21.4,29.95,NNW,331,0.0,3.0,75,0.00,,,0.00,VWS V14.01,2013-02-05 16:59:00,
2013-02-05 12:00:00,28.3,21.4,29.95,NNW,331,0.0,3.0,75,0.00,,,0.00,VWS V14.01,2013-02-05 17:00:00,
2013-02-05 12:09:00,28.4,21.8,29.95,NNW,331,0.0,0.0,76,0.00,,,0.00,VWS V14.01,2013-02-05 17:09:00,
2013-02-05 12:14:00,28.7,21.8,29.94,WNW,302,0.0,3.0,75,0.00,,,0.00,VWS V14.01,2013-02-05 17:14:00,
2013-02-05 12:19:00,28.7,21.8,29.94,WNW,302,0.0,3.0,75,0.00,,,0.00,VWS V14.01,2013-02-05 17:19:00,
2013-02-05 12:24:00,28.7,21.8,29.94,WNW,302,0.0,3.0,75,0.00,,,0.00,VWS V14.01,2013-02-05 17:24:00,
2013-02-05 12:29:00,28.9,21.7,29.94,WNW,302,2.0,3.0,74,0.00,,,0.00,VWS V14.01,2013-02-05 17:29:00,
2013-02-05 12:30:00,28.9,22.0,29.94,WNW,302,0.0,3.0,75,0.00,,,0.00,VWS V14.01,2013-02-05 17:30:00,
2013-02-05 12:34:00,29.1,21.9,29.94,WNW,302,1.0,2.0,74,0.00,,,0.00,VWS V14.01,2013-02-05 17:34:00,
2013-02-05 12:39:00,29.4,22.5,29.94,WNW,302,0.0,2.0,75,0.00,,,0.00,VWS V14.01,2013-02-05 17:39:00,
2013-02-05 12:44:00,29.6,22.0,29.94,WNW,302,2.0,2.0,73,0.00,,,0.00,VWS V14.01,2013-02-05 17:44:00,
2013-02-05 12:49:00,29.4,21.8,29.94,WNW,284,0.0,3.0,73,0.00,,,0.00,VWS V14.01,2013-02-05 17:49:00,
2013-02-05 12:54:00,29.5,21.9,29.94,NE,53,0.0,3.0,73,0.00,,,0.00,VWS V14.01,2013-02-05 17:54:00,
2013-02-05 12:59:00,29.5,21.6,29.94,SSE,154,2.0,3.0,72,0.00,,,0.00,VWS V14.01,2013-02-05 17:59:00,
2013-02-05 13:00:00,29.5,21.9,29.94,SSE,154,0.0,3.0,73,0.00,,,0.00,VWS V14.01,2013-02-05 18:00:00,
2013-02-05 13:04:00,29.3,21.4,29.94,SSE,154,0.0,4.0,72,0.00,,,0.00,VWS V14.01,2013-02-05 18:04:00,
2013-02-05 13:10:00,29.3,21.7,29.94,SSW,206,0.0,4.0,73,0.00,,,0.00,VWS V14.01,2013-02-05 18:10:00,
2013-02-05 13:15:00,29.4,22.5,29.94,SW,215,0.0,4.0,75,0.00,,,0.00,VWS V14.01,2013-02-05 18:15:00,
2013-02-05 13:21:00,29.4,21.8,29.94,South,186,1.0,4.0,73,0.00,,,0.00,VWS V14.01,2013-02-05 18:21:00,
2013-02-05 13:26:00,29.5,22.2,29.94,South,182,0.0,4.0,74,0.00,,,0.00,VWS V14.01,2013-02-05 18:26:00,
2013-02-05 13:30:00,29.6,22.3,29.94,South,182,0.0,4.0,74,0.00,,,0.00,VWS V14.01,2013-02-05 18:30:00,
2013-02-05 13:31:00,29.5,22.2,29.94,South,182,0.0,0.0,74,0.00,,,0.00,VWS V14.01,2013-02-05 18:31:00,
2013-02-05 13:36:00,29.5,21.9,29.94,South,182,0.0,2.0,73,0.00,,,0.00,VWS V14.01,2013-02-05 18:36:00,
2013-02-05 13:41:00,29.5,22.2,29.93,South,182,0.0,2.0,74,0.00,,,0.00,VWS V14.01,2013-02-05 18:41:00,
2013-02-05 13:46:00,29.5,22.2,29.93,ESE,113,0.0,2.0,74,0.00,,,0.00,VWS V14.01,2013-02-05 18:46:00,
2013-02-05 13:51:00,29.5,21.9,29.93,SSE,147,1.0,4.0,73,0.00,,,0.00,VWS V14.01,2013-02-05 18:51:00,
2013-02-05 13:56:00,29.5,21.9,29.93,SSE,168,1.0,4.0,73,0.00,,,0.00,VWS V14.01,2013-02-05 18:56:00,
2013-02-05 14:00:00,29.4,21.5,29.93,SSE,168,0.0,4.0,72,0.00,,,0.00,VWS V14.01,2013-02-05 19:00:00,
2013-02-05 14:01:00,29.4,22.1,29.93,SSE,168,0.0,1.0,74,0.00,,,0.00,VWS V14.01,2013-02-05 19:01:00,
2013-02-05 14:06:00,29.3,21.7,29.92,NE,37,1.0,4.0,73,0.00,,,0.00,VWS V14.01,2013-02-05 19:06:00,
2013-02-05 14:13:00,29.4,22.1,29.92,SE,146,0.0,4.0,74,0.00,,,0.00,VWS V14.01,2013-02-05 19:13:00,
2013-02-05 14:18:00,29.5,21.9,29.92,SE,146,0.0,4.0,73,0.00,,,0.00,VWS V14.01,2013-02-05 19:18:00,
2013-02-05 14:23:00,29.5,21.9,29.92,East,98,2.0,4.0,73,0.00,,,0.00,VWS V14.01,2013-02-05 19:23:00,
2013-02-05 14:28:00,29.4,22.1,29.92,SSE,151,0.0,4.0,74,0.00,,,0.00,VWS V14.01,2013-02-05 19:28:00,
2013-02-05 14:30:00,29.4,21.8,29.92,SSE,151,0.0,4.0,73,0.00,,,0.00,VWS V14.01,2013-02-05 19:30:00,
2013-02-05 14:33:00,29.4,22.1,29.92,SSE,151,0.0,0.0,74,0.00,,,0.00,VWS V14.01,2013-02-05 19:33:00,
2013-02-05 14:38:00,29.4,21.8,29.91,North,5,0.0,3.0,73,0.00,,,0.00,VWS V14.01,2013-02-05 19:38:00,
2013-02-05 14:43:00,29.4,21.8,29.91,SSE,147,1.0,3.0,73,0.00,,,0.00,VWS V14.01,2013-02-05 19:43:00,
2013-02-05 14:48:00,29.5,21.9,29.91,SSE,147,0.0,3.0,73,0.00,,,0.00,VWS V14.01,2013-02-05 19:48:00,
2013-02-05 14:53:00,29.5,22.2,29.91,ENE,64,0.0,3.0,74,0.00,,,0.00,VWS V14.01,2013-02-05 19:53:00,
2013-02-05 14:58:00,29.4,21.8,29.91,ENE,64,0.0,3.0,73,0.00,,,0.00,VWS V14.01,2013-02-05 19:58:00,
2013-02-05 15:00:00,29.4,21.8,29.91,ENE,64,0.0,3.0,73,0.00,,,0.00,VWS V14.01,2013-02-05 20:00:00,
2013-02-05 15:03:00,29.4,21.5,29.91,ENE,64,0.0,0.0,72,0.00,,,0.00,VWS V14.01,2013-02-05 20:03:00,
2013-02-05 15:08:00,29.4,21.5,29.91,ENE,64,0.0,2.0,72,0.00,,,0.00,VWS V14.01,2013-02-05 20:08:00,
2013-02-05 15:14:00,29.3,21.1,29.91,ENE,69,0.0,3.0,71,0.00,,,0.00,VWS V14.01,2013-02-05 20:14:00,
2013-02-05 15:19:00,29.3,21.4,29.91,ENE,69,0.0,3.0,72,0.00,,,0.00,VWS V14.01,2013-02-05 20:19:00,
2013-02-05 15:25:00,29.2,21.6,29.91,ENE,69,0.0,3.0,73,0.00,,,0.00,VWS V14.01,2013-02-05 20:25:00,
2013-02-05 15:30:00,29.2,21.6,29.91,ENE,69,1.0,3.0,73,0.00,,,0.00,VWS V14.01,2013-02-05 20:30:00,
2013-02-05 15:35:00,29.1,21.2,29.92,ENE,69,0.0,1.0,72,0.00,,,0.00,VWS V14.01,2013-02-05 20:35:00,
2013-02-05 15:40:00,29.1,21.5,29.92,ENE,69,0.0,1.0,73,0.00,,,0.00,VWS V14.01,2013-02-05 20:40:00,
2013-02-05 15:45:00,29.0,21.4,29.92,ENE,69,0.0,1.0,73,0.00,,,0.00,VWS V14.01,2013-02-05 20:45:00,
2013-02-05 15:50:00,29.0,21.8,29.92,ENE,69,0.0,1.0,74,0.00,,,0.00,VWS V14.01,2013-02-05 20:50:00,
2013-02-05 15:55:00,29.0,21.4,29.92,ENE,69,0.0,1.0,73,0.00,,,0.00,VWS V14.01,2013-02-05 20:55:00,
2013-02-05 16:00:00,28.9,21.4,29.92,ENE,69,0.0,1.0,73,0.00,,,0.00,VWS V14.01,2013-02-05 21:00:00,
2013-02-05 16:05:00,28.8,21.2,29.92,ENE,69,0.0,0.0,73,0.00,,,0.00,VWS V14.01,2013-02-05 21:05:00,
2013-02-05 16:10:00,28.8,21.6,29.92,ENE,69,0.0,2.0,74,0.00,,,0.00,VWS V14.01,2013-02-05 21:10:00,
2013-02-05 16:40:00,28.7,21.5,29.92,South,173,0.0,2.0,74,0.00,,,0.00,VWS V14.01,2013-02-05 21:40:00,
2013-02-05 16:45:00,28.0,22.0,29.91,ESE,121,1.0,3.0,78,0.00,,,0.00,VWS V14.01,2013-02-05 21:45:00,
2013-02-05 16:50:00,27.8,22.1,29.91,SE,139,0.0,3.0,79,0.00,,,0.00,VWS V14.01,2013-02-05 21:50:00,
2013-02-05 16:55:00,27.6,22.2,29.91,SE,139,0.0,3.0,80,0.00,,,0.00,VWS V14.01,2013-02-05 21:55:00,
2013-02-05 17:00:00,27.5,22.5,29.91,SE,139,0.0,3.0,81,0.00,,,0.00,VWS V14.01,2013-02-05 22:00:00,
2013-02-05 17:05:00,27.3,22.5,29.92,SE,140,0.0,1.0,82,0.00,,,0.00,VWS V14.01,2013-02-05 22:05:00,
2013-02-05 17:10:00,27.1,22.6,29.92,SE,140,0.0,1.0,83,0.00,,,0.00,VWS V14.01,2013-02-05 22:10:00,
2013-02-05 17:15:00,27.0,22.8,29.92,SE,140,0.0,1.0,84,0.00,,,0.00,VWS V14.01,2013-02-05 22:15:00,
2013-02-05 17:20:00,26.9,23.0,29.92,SE,140,0.0,1.0,85,0.00,,,0.00,VWS V14.01,2013-02-05 22:20:00,
2013-02-05 17:25:00,26.9,23.3,29.92,SE,140,0.0,1.0,86,0.00,,,0.00,VWS V14.01,2013-02-05 22:25:00,
2013-02-05 17:30:00,26.8,23.2,29.91,SE,140,0.0,1.0,86,0.00,,,0.00,VWS V14.01,2013-02-05 22:30:00,
2013-02-05 17:35:00,26.7,23.4,29.91,SE,140,0.0,0.0,87,0.00,,,0.00,VWS V14.01,2013-02-05 22:35:00,
2013-02-05 17:43:00,26.6,23.3,29.91,SE,140,0.0,0.0,87,0.00,,,0.00,VWS V14.01,2013-02-05 22:43:00,
2013-02-05 17:48:00,26.4,23.3,29.91,SE,140,0.0,0.0,88,0.00,,,0.00,VWS V14.01,2013-02-05 22:48:00,
2013-02-05 17:53:00,26.4,23.3,29.91,SE,140,0.0,0.0,88,0.00,,,0.00,VWS V14.01,2013-02-05 22:53:00,
2013-02-05 17:58:00,26.3,23.5,29.91,SE,140,0.0,0.0,89,0.00,,,0.00,VWS V14.01,2013-02-05 22:58:00,
2013-02-05 18:00:00,26.2,23.4,29.91,SE,131,0.0,1.0,89,0.00,,,0.00,VWS V14.01,2013-02-05 23:00:00,
2013-02-05 18:03:00,26.2,23.1,29.91,SE,131,0.0,0.0,88,0.00,,,0.00,VWS V14.01,2013-02-05 23:03:00,
2013-02-05 18:08:00,26.1,23.0,29.91,SE,131,0.0,1.0,88,0.00,,,0.00,VWS V14.01,2013-02-05 23:08:00,
2013-02-05 18:14:00,26.0,23.2,29.92,SE,131,0.0,1.0,89,0.00,,,0.00,VWS V14.01,2013-02-05 23:14:00,
2013-02-05 18:19:00,26.0,23.2,29.91,SE,131,0.0,1.0,89,0.00,,,0.00,VWS V14.01,2013-02-05 23:19:00,
2013-02-05 18:24:00,25.9,23.1,29.91,SE,131,0.0,1.0,89,0.00,,,0.00,VWS V14.01,2013-02-05 23:24:00,
2013-02-05 18:29:00,25.8,23.0,29.92,SE,131,0.0,1.0,89,0.00,,,0.00,VWS V14.01,2013-02-05 23:29:00,
2013-02-05 18:30:00,25.8,23.0,29.92,ESE,120,1.0,2.0,89,0.00,,,0.00,VWS V14.01,2013-02-05 23:30:00,
2013-02-05 18:34:00,25.8,23.0,29.92,ESE,120,0.0,1.0,89,0.00,,,0.00,VWS V14.01,2013-02-05 23:34:00,
2013-02-05 18:39:00,25.7,22.9,29.92,ESE,120,0.0,1.0,89,0.00,,,0.00,VWS V14.01,2013-02-05 23:39:00,
2013-02-05 18:47:00,25.7,22.9,29.92,ESE,120,0.0,2.0,89,0.00,,,0.00,VWS V14.01,2013-02-05 23:47:00,
2013-02-05 18:52:00,25.6,22.8,29.92,ESE,120,0.0,2.0,89,0.00,,,0.00,VWS V14.01,2013-02-05 23:52:00,
2013-02-05 18:57:00,25.6,23.1,29.92,ESE,120,0.0,2.0,90,0.00,,,0.00,VWS V14.01,2013-02-05 23:57:00,
2013-02-05 19:00:00,25.6,23.1,29.92,ESE,120,0.0,2.0,90,0.00,,,0.00,VWS V14.01,2013-02-06 00:00:00,
2013-02-05 19:02:00,25.5,23.0,29.92,ESE,120,0.0,0.0,90,0.00,,,0.00,VWS V14.01,2013-02-06 00:02:00,
2013-02-05 19:07:00,25.5,23.0,29.92,ESE,120,0.0,0.0,90,0.00,,,0.00,VWS V14.01,2013-02-06 00:07:00,
2013-02-05 19:12:00,25.4,22.9,29.93,ESE,120,0.0,0.0,90,0.00,,,0.00,VWS V14.01,2013-02-06 00:12:00,
2013-02-05 19:17:00,25.4,23.1,29.93,ESE,120,0.0,0.0,91,0.00,,,0.00,VWS V14.01,2013-02-06 00:17:00,
2013-02-05 19:22:00,25.4,23.1,29.93,ESE,120,0.0,0.0,91,0.00,,,0.00,VWS V14.01,2013-02-06 00:22:00,
2013-02-05 19:27:00,25.4,23.1,29.93,ESE,120,0.0,0.0,91,0.00,,,0.00,VWS V14.01,2013-02-06 00:27:00,
2013-02-05 19:30:00,25.4,23.1,29.93,ESE,120,0.0,0.0,91,0.00,,,0.00,VWS V14.01,2013-02-06 00:30:00,
2013-02-05 19:33:00,25.4,23.1,29.92,ESE,120,0.0,0.0,91,0.00,,,0.00,VWS V14.01,2013-02-06 00:33:00,
2013-02-05 19:38:00,25.4,22.9,29.92,ESE,120,0.0,0.0,90,0.00,,,0.00,VWS V14.01,2013-02-06 00:38:00,
2013-02-05 19:43:00,25.3,22.8,29.92,ESE,120,0.0,0.0,90,0.00,,,0.00,VWS V14.01,2013-02-06 00:43:00,
2013-02-05 19:48:00,25.3,22.8,29.92,ESE,120,0.0,0.0,90,0.00,,,0.00,VWS V14.01,2013-02-06 00:48:00,
2013-02-05 19:53:00,25.3,22.8,29.92,ESE,120,0.0,0.0,90,0.00,,,0.00,VWS V14.01,2013-02-06 00:53:00,
2013-02-05 19:58:00,25.4,22.9,29.92,ESE,120,0.0,0.0,90,0.00,,,0.00,VWS V14.01,2013-02-06 00:58:00,
2013-02-05 20:00:00,25.4,23.1,29.92,ESE,120,0.0,0.0,91,0.00,,,0.00,VWS V14.01,2013-02-06 01:00:00,
2013-02-05 20:03:00,25.4,22.9,29.92,ESE,120,0.0,0.0,90,0.00,,,0.00,VWS V14.01,2013-02-06 01:03:00,
2013-02-05 20:08:00,25.4,22.9,29.92,ESE,120,0.0,0.0,90,0.00,,,0.00,VWS V14.01,2013-02-06 01:08:00,
2013-02-05 20:13:00,25.5,23.2,29.92,ESE,120,0.0,0.0,91,0.00,,,0.00,VWS V14.01,2013-02-06 01:13:00,
2013-02-05 20:18:00,25.5,23.2,29.92,ESE,120,0.0,0.0,91,0.00,,,0.00,VWS V14.01,2013-02-06 01:18:00,
2013-02-05 20:23:00,25.5,23.2,29.92,ESE,120,0.0,1.0,91,0.00,,,0.00,VWS V14.01,2013-02-06 01:23:00,
2013-02-05 20:28:00,25.6,23.3,29.92,ESE,120,0.0,1.0,91,0.00,,,0.00,VWS V14.01,2013-02-06 01:28:00,
2013-02-05 20:30:00,25.6,23.3,29.92,ESE,120,0.0,1.0,91,0.00,,,0.00,VWS V14.01,2013-02-06 01:30:00,
2013-02-05 20:33:00,25.6,23.1,29.92,ESE,120,0.0,0.0,90,0.00,,,0.00,VWS V14.01,2013-02-06 01:33:00,
2013-02-05 20:38:00,25.6,23.3,29.92,ESE,120,0.0,0.0,91,0.00,,,0.00,VWS V14.01,2013-02-06 01:38:00,
2013-02-05 20:44:00,25.6,23.3,29.92,ESE,120,0.0,0.0,91,0.00,,,0.00,VWS V14.01,2013-02-06 01:44:00,
2013-02-05 20:49:00,25.6,23.1,29.92,ESE,120,0.0,0.0,90,0.00,,,0.00,VWS V14.01,2013-02-06 01:49:00,
2013-02-05 20:54:00,25.6,23.3,29.92,ESE,120,0.0,0.0,91,0.00,,,0.00,VWS V14.01,2013-02-06 01:54:00,
2013-02-05 20:59:00,25.6,23.3,29.92,ESE,120,0.0,0.0,91,0.00,,,0.00,VWS V14.01,2013-02-06 01:59:00,
2013-02-05 21:00:00,25.6,23.3,29.92,ESE,120,0.0,0.0,91,0.00,,,0.00,VWS V14.01,2013-02-06 02:00:00,
2013-02-05 21:04:00,25.6,23.3,29.92,ESE,120,0.0,0.0,91,0.00,,,0.00,VWS V14.01,2013-02-06 02:04:00,
2013-02-05 21:09:00,25.6,23.3,29.92,ESE,120,0.0,0.0,91,0.00,,,0.00,VWS V14.01,2013-02-06 02:09:00,
2013-02-05 21:14:00,25.5,23.2,29.92,ESE,120,0.0,0.0,91,0.00,,,0.00,VWS V14.01,2013-02-06 02:14:00,
2013-02-05 21:19:00,25.5,23.2,29.92,ESE,120,0.0,0.0,91,0.00,,,0.00,VWS V14.01,2013-02-06 02:19:00,
2013-02-05 21:24:00,25.4,23.1,29.92,ESE,120,0.0,0.0,91,0.00,,,0.00,VWS V14.01,2013-02-06 02:24:00,
2013-02-05 21:29:00,25.4,23.4,29.92,ESE,120,0.0,0.0,92,0.00,,,0.00,VWS V14.01,2013-02-06 02:29:00,
2013-02-05 21:30:00,25.4,23.4,29.92,ESE,120,0.0,0.0,92,0.00,,,0.00,VWS V14.01,2013-02-06 02:30:00,
2013-02-05 21:34:00,25.4,23.4,29.92,ESE,120,0.0,0.0,92,0.00,,,0.00,VWS V14.01,2013-02-06 02:34:00,
2013-02-05 21:39:00,25.4,23.4,29.92,ESE,120,0.0,0.0,92,0.00,,,0.00,VWS V14.01,2013-02-06 02:39:00,
2013-02-05 21:44:00,25.4,23.4,29.92,ESE,120,0.0,0.0,92,0.00,,,0.00,VWS V14.01,2013-02-06 02:44:00,
2013-02-05 21:49:00,25.4,23.4,29.92,ESE,120,0.0,0.0,92,0.00,,,0.00,VWS V14.01,2013-02-06 02:49:00,
2013-02-05 21:55:00,25.4,23.4,29.92,ESE,120,0.0,0.0,92,0.00,,,0.00,VWS V14.01,2013-02-06 02:55:00,
2013-02-05 22:00:00,25.5,23.5,29.92,ESE,120,0.0,0.0,92,0.00,,,0.00,VWS V14.01,2013-02-06 03:00:00,
2013-02-05 22:05:00,25.5,23.5,29.92,ESE,120,0.0,0.0,92,0.00,,,0.00,VWS V14.01,2013-02-06 03:05:00,
2013-02-05 22:10:00,25.5,23.5,29.92,ESE,120,0.0,0.0,92,0.00,,,0.00,VWS V14.01,2013-02-06 03:10:00,
2013-02-05 22:15:00,25.5,23.5,29.92,ESE,120,0.0,0.0,92,0.00,,,0.00,VWS V14.01,2013-02-06 03:15:00,
2013-02-05 22:20:00,25.5,23.5,29.92,ESE,120,0.0,0.0,92,0.00,,,0.00,VWS V14.01,2013-02-06 03:20:00,
2013-02-05 22:25:00,25.6,23.6,29.92,ESE,120,0.0,0.0,92,0.00,,,0.00,VWS V14.01,2013-02-06 03:25:00,
2013-02-05 22:30:00,25.6,23.6,29.92,ESE,120,0.0,0.0,92,0.00,,,0.00,VWS V14.01,2013-02-06 03:30:00,
2013-02-05 22:35:00,25.6,23.6,29.92,ESE,120,0.0,0.0,92,0.00,,,0.00,VWS V14.01,2013-02-06 03:35:00,
2013-02-05 22:40:00,25.6,23.6,29.92,ESE,120,0.0,0.0,92,0.00,,,0.00,VWS V14.01,2013-02-06 03:40:00,
2013-02-05 22:45:00,25.6,23.6,29.92,ESE,120,0.0,0.0,92,0.00,,,0.00,VWS V14.01,2013-02-06 03:45:00,
2013-02-05 22:50:00,25.6,23.6,29.92,ESE,120,0.0,0.0,92,0.00,,,0.00,VWS V14.01,2013-02-06 03:50:00,
2013-02-05 22:55:00,25.6,23.6,29.92,ESE,120,0.0,0.0,92,0.00,,,0.00,VWS V14.01,2013-02-06 03:55:00,
2013-02-05 23:00:00,25.7,23.7,29.92,ESE,120,0.0,0.0,92,0.00,,,0.00,VWS V14.01,2013-02-06 04:00:00,
2013-02-05 23:05:00,25.7,23.7,29.92,ESE,120,0.0,0.0,92,0.00,,,0.00,VWS V14.01,2013-02-06 04:05:00,
2013-02-05 23:10:00,25.7,23.7,29.92,ESE,120,0.0,0.0,92,0.00,,,0.00,VWS V14.01,2013-02-06 04:10:00,
2013-02-05 23:15:00,25.7,23.7,29.92,ESE,120,0.0,0.0,92,0.00,,,0.00,VWS V14.01,2013-02-06 04:15:00,
2013-02-05 23:20:00,25.7,23.7,29.92,ESE,120,0.0,0.0,92,0.00,,,0.00,VWS V14.01,2013-02-06 04:20:00,
2013-02-05 23:26:00,25.7,23.7,29.92,ESE,120,0.0,0.0,92,0.00,,,0.00,VWS V14.01,2013-02-06 04:26:00,
2013-02-05 23:32:00,25.7,23.7,29.92,ESE,120,0.0,0.0,92,0.00,,,0.00,VWS V14.01,2013-02-06 04:32:00,
2013-02-05 23:37:00,25.7,23.7,29.92,ESE,120,0.0,0.0,92,0.00,,,0.00,VWS V14.01,2013-02-06 04:37:00,
2013-02-05 23:42:00,25.7,23.7,29.92,ESE,120,0.0,0.0,92,0.00,,,0.00,VWS V14.01,2013-02-06 04:42:00,
2013-02-05 23:47:00,25.7,23.7,29.92,ESE,120,0.0,0.0,92,0.00,,,0.00,VWS V14.01,2013-02-06 04:47:00,
2013-02-05 23:52:00,25.7,23.7,29.92,ESE,120,0.0,0.0,92,0.00,,,0.00,VWS V14.01,2013-02-06 04:52:00,
2013-02-05 23:57:00,25.7,23.7,29.92,ESE,120,0.0,0.0,92,0.00,,,0.00,VWS V14.01,2013-02-06 04:57:00,